Location: ??????
(55.6130°N, 37.7882°E)
Time: 22:35:43
(UTC+00:00)

Envisat - Pass Details

Date: 01 July 2024
Orbit: 762 x 764 km, 98.3° (Epoch: 21 July)

Event Time Altitude Azimuth Distance (km) Brightness Sun altitude
Rises 23:39:25 0° 23° (NNE) 3,242 8.7 -6.9°
Reaches altitude 10° 23:42:16 10° 39° (NE) 2,310 7.2 -6.7°
Maximum altitude 23:46:09 22° 89° (E) 1,641 5.2 -6.4°
Drops below altitude 10° 23:50:01 10° 139° (SE) 2,296 5.3 -6.1°
Sets 23:52:49 0° 155° (SSE) 3,217 5.9 -5.9°
